Theta_e
292 292 291 291 291 290 289 288 288 288 288 288 288 287 287 286 286 285 285 285 285 286 286 287 287 287 287 287 287 287 287 287 287 287 287 287 286 286 286 286 285 285 284 284 283 283 282 281 281 281 280 280 280 280 280 279 279 278 278 278 278 278 278 278 278 278 280 280 279 279 279 278 278 278 277 277 278 278 278 278 277 278 277 277 277
292 292 291 291 291 290 289 289 289 289 288 288 287 287 286 286 285 285 285 285 286 286 287 287 287 287 287 287 287 287 287 287 287 287 287 287 286 286 286 286 285 285 284 284 283 283 282 281 281 280 280 280 280 280 279 279 279 278 278 278 277 277 277 277 277 276 278 279 279 278 278 278 277 277 277 276 276 276 277 277 276 276 276 276 276
292 291 291 291 290 290 289 289 289 288 288 288 287 287 286 285 285 285 285 286 286 287 287 287 287 287 287 287 287 287 287 287 287 287 287 287 287 286 286 286 285 285 284 284 283 283 282 281 281 280 280 280 280 280 279 279 278 278 277 277 277 277 276 276 276 276 276 277 278 277 277 277 276 276 276 275 275 275 275 275 275 275 275 275 275
291 291 291 290 290 289 289 289 288 288 288 287 287 286 285 285 285 285 285 286 287 287 287 287 287 287 287 287 287 287 287 287 287 287 286 286 286 286 286 285 285 285 285 284 283 283 282 281 280 280 280 280 280 279 279 278 278 277 277 277 276 276 276 275 276 276 276 276 277 276 275 275 275 275 275 275 275 274 274 274 274 275 275 274 274
291 290 290 290 289 289 288 288 287 287 287 287 286 286 285 285 285 285 286 287 287 287 287 287 287 287 287 287 287 287 287 287 287 287 286 286 286 286 286 285 285 285 285 284 283 282 282 281 280 280 279 279 279 279 278 278 277 277 277 276 276 276 275 275 275 275 275 275 275 275 275 274 274 274 274 274 274 274 273 274 274 274 274 274 274
290 290 289 289 288 288 287 287 287 287 287 286 286 285 285 285 285 285 286 287 287 287 287 287 287 287 287 287 287 287 287 286 286 286 286 286 286 286 286 285 285 285 284 283 283 282 281 280 280 279 279 279 278 278 277 277 277 276 276 276 276 276 275 275 275 275 275 274 274 274 274 274 274 274 273 273 273 273 273 274 274 274 274 274 274
290 289 289 288 288 287 287 287 286 286 286 286 286 285 285 285 285 286 287 287 287 287 287 287 287 287 287 287 287 287 286 286 286 286 286 286 286 286 285 285 285 284 284 283 282 282 281 280 279 279 278 278 278 277 277 277 276 276 276 276 276 276 276 276 275 275 274 274 274 274 273 273 273 273 273 273 273 273 273 273 273 274 274 274 274
289 289 289 288 287 287 287 286 286 286 286 286 285 285 285 285 285 286 287 287 287 287 287 287 287 287 287 287 287 286 286 286 286 286 286 286 286 285 285 285 285 284 283 283 282 281 280 280 279 278 278 278 277 277 276 276 277 277 277 277 277 276 276 276 275 274 274 274 274 274 273 273 273 273 273 273 273 273 273 273 273 274 274 275 275
289 288 288 288 287 287 286 286 286 286 286 286 285 285 284 284 285 286 287 287 287 287 287 287 287 286 286 286 286 286 286 286 286 286 286 286 286 285 285 285 284 284 283 283 282 281 280 280 279 278 278 277 277 277 277 277 277 277 277 277 276 276 276 276 275 275 274 274 274 274 274 274 273 273 273 273 273 273 274 274 274 274 275 275 275
289 288 287 287 287 287 286 286 286 286 286 285 285 285 284 284 285 286 287 287 287 287 287 286 286 286 286 286 286 286 286 286 286 286 286 286 285 285 285 284 284 283 283 282 282 281 280 279 279 278 278 277 277 276 276 277 277 277 277 276 276 276 276 275 275 275 275 275 274 274 274 274 274 274 274 274 274 274 274 274 275 275 275 275 275
288 288 287 287 287 286 286 286 286 286 286 285 285 285 284 284 285 286 286 286 286 286 286 286 286 286 286 286 286 286 286 286 286 286 286 285 285 285 285 284 283 283 282 282 281 281 280 279 279 278 277 277 277 276 276 276 275 275 275 275 275 276 276 275 275 275 275 275 275 274 274 274 274 274 274 274 274 275 275 275 275 275 275 275 276
288 287 287 286 286 286 286 286 285 285 285 285 285 284 284 284 285 285 285 286 286 286 285 285 286 286 286 286 286 286 286 286 286 285 285 285 285 285 284 284 283 282 282 281 281 280 280 279 279 278 277 277 276 276 276 275 275 274 274 274 275 275 275 275 275 275 274 274 274 274 274 274 274 274 274 274 275 275 275 275 275 275 275 276 276
287 287 286 286 285 286 286 286 285 285 285 285 284 284 284 284 284 285 285 286 286 285 285 285 285 285 286 286 286 286 286 286 286 285 285 284 284 284 284 284 283 282 282 281 280 280 279 279 278 278 277 277 276 276 275 275 274 274 274 274 274 274 274 274 274 274 274 274 274 274 274 274 274 275 275 275 275 275 275 275 275 275 276 276 276
287 286 286 286 285 285 285 285 285 285 285 284 284 284 284 284 284 284 285 285 285 285 285 285 285 285 286 286 286 286 286 286 285 285 285 284 283 283 283 283 282 282 281 281 280 279 279 279 278 278 277 277 276 275 275 274 274 274 273 273 273 273 273 274 274 274 274 274 274 274 275 275 275 275 275 276 275 276 276 276 276 275 275 275 275
286 286 286 286 286 286 285 285 285 285 284 284 284 284 284 283 284 284 284 285 285 286 285 285 285 285 286 286 285 286 286 285 285 285 284 284 282 282 282 282 281 281 281 280 280 279 279 278 278 277 277 276 276 275 274 274 274 273 274 273 273 274 274 274 274 274 275 275 275 275 275 276 276 276 276 276 276 276 275 275 275 274 274 274 274
286 286 286 286 286 286 285 285 285 285 284 284 284 284 283 283 284 284 284 285 285 285 285 285 285 286 286 285 285 285 285 285 285 284 284 283 281 281 281 281 280 280 280 280 279 278 278 278 277 277 276 276 276 275 274 274 274 274 274 274 274 274 274 274 275 275 275 276 276 276 276 276 276 276 276 275 275 274 274 273 273 273 273 273 273
287 286 286 286 286 286 285 285 285 284 284 284 284 284 284 284 284 284 284 284 284 284 285 285 285 285 285 285 285 285 285 285 284 284 283 282 281 280 280 280 280 280 280 279 278 278 277 277 277 276 276 276 275 274 274 274 274 274 274 274 275 275 275 275 275 276 276 276 276 276 275 275 275 274 273 273 273 272 272 271 271 271 271 271 271
287 286 286 286 286 286 285 285 285 284 284 284 284 284 284 284 284 284 284 284 284 285 285 285 285 285 285 285 285 285 285 284 284 283 283 282 280 280 280 280 279 279 279 279 278 277 277 277 276 276 276 275 275 274 274 274 274 274 275 275 275 275 275 276 276 275 275 275 274 274 273 273 272 271 270 270 270 270 270 269 269 270 270 271 271
287 287 287 287 286 286 286 285 285 285 285 284 284 284 284 284 284 284 284 284 284 285 285 285 285 285 284 284 284 284 284 283 283 283 282 281 280 279 279 279 279 279 279 279 278 277 277 276 276 276 275 275 274 274 274 275 275 275 276 275 275 275 276 275 275 275 274 274 273 272 271 271 270 270 269 269 268 268 268 268 269 269 269 270 270
289 289 288 287 287 286 286 285 285 285 285 285 285 285 285 285 284 284 284 284 284 284 284 284 284 284 284 284 284 283 283 283 282 282 282 281 280 279 279 279 279 280 279 278 278 277 277 276 276 276 275 274 273 274 275 276 276 276 276 276 276 276 276 275 274 274 273 273 272 271 270 270 270 270 269 268 267 267 267 268 268 268 268 269 269
290 289 288 287 287 286 286 286 286 285 285 285 285 285 285 285 285 284 284 284 283 283 283 283 283 283 283 283 283 283 283 283 282 282 281 281 279 279 279 279 280 280 279 278 277 276 276 276 275 275 274 273 274 275 275 276 276 276 276 276 276 276 275 274 274 273 272 271 270 270 270 270 270 269 268 267 267 266 266 267 267 267 267 267 267
290 289 288 288 287 287 286 286 286 286 286 285 285 285 285 285 285 284 284 283 283 283 283 283 283 283 282 282 282 282 282 282 281 281 281 280 279 278 279 280 280 279 278 277 276 276 276 275 275 274 273 273 274 275 275 275 276 276 276 276 275 275 274 273 273 272 271 270 270 270 270 270 270 269 268 267 266 266 266 266 267 267 267 267 267
290 289 289 288 288 287 287 287 286 286 286 286 285 285 285 285 284 284 284 283 283 283 282 282 281 281 281 282 282 282 282 281 281 280 280 280 279 278 278 279 278 278 278 277 277 276 276 275 274 273 272 273 274 274 275 276 276 276 275 275 274 274 273 272 271 270 270 269 269 270 270 269 268 267 267 266 266 266 266 267 267 267 267 267 267
290 289 289 289 288 288 288 287 287 286 286 286 285 285 285 285 284 284 283 283 282 282 282 281 280 280 280 281 282 282 281 281 280 280 280 279 279 278 278 277 277 277 277 277 276 276 275 274 273 272 273 273 274 274 275 276 275 275 274 274 273 272 271 271 270 269 269 269 269 269 269 269 267 267 267 266 266 266 267 267 267 267 267 267 267
291 290 290 290 289 289 288 288 287 287 287 286 286 285 285 285 284 284 283 283 282 282 281 280 280 280 280 280 281 281 281 280 279 279 279 279 279 278 277 276 276 277 276 276 275 275 274 273 273 273 273 274 274 275 276 275 275 274 274 272 271 271 270 269 269 268 268 269 269 268 269 268 267 266 266 266 266 266 267 267 267 267 267 267 267
291 290 290 290 290 289 289 288 288 287 287 286 286 286 285 285 284 284 283 282 281 281 280 280 279 278 278 279 280 280 279 278 278 278 279 279 278 277 276 275 276 276 276 276 275 275 274 274 274 274 274 274 275 275 275 275 274 274 273 271 270 270 269 269 269 268 268 268 267 267 268 267 267 266 266 266 266 266 267 267 267 267 267 267 267
290 290 290 289 289 289 288 288 288 287 287 286 286 286 285 285 284 283 283 282 281 281 280 279 278 278 278 278 279 277 276 276 277 277 278 278 277 277 276 276 275 275 276 276 275 275 275 275 275 275 275 275 275 275 274 274 273 273 271 270 269 269 269 269 268 268 267 267 267 267 267 267 266 266 266 266 266 266 266 267 267 267 267 267 267
289 289 289 288 288 288 287 287 287 286 286 285 285 285 284 284 283 283 283 282 281 280 279 278 278 277 277 276 275 275 274 275 275 276 277 277 277 277 276 276 275 275 275 275 274 274 274 274 274 274 274 274 274 274 273 273 272 272 271 270 269 269 269 268 268 267 267 266 266 266 266 266 266 266 266 266 266 266 266 266 266 267 267 267 267
288 288 288 288 287 287 287 286 286 285 285 284 284 283 283 282 282 281 281 280 280 279 278 278 277 276 276 275 275 274 275 276 276 277 276 276 276 276 276 276 275 274 274 274 273 273 273 273 273 272 272 272 273 273 273 272 272 271 270 269 269 269 268 268 267 267 267 266 266 266 265 265 265 265 265 265 266 266 266 266 266 266 266 266 266
288 287 287 287 287 286 286 285 285 284 284 283 283 282 282 281 280 280 280 279 278 278 277 277 277 276 275 275 275 275 275 276 276 276 275 275 275 274 274 274 274 274 273 273 273 273 273 272 272 272 271 271 272 272 272 272 271 271 270 269 269 268 268 267 267 267 266 266 265 265 265 265 265 265 265 265 265 266 266 266 266 266 266 266 266
287 286 286 286 285 284 284 283 283 283 282 281 281 280 280 280 279 278 278 277 277 276 276 276 275 275 275 275 275 275 275 274 274 274 274 274 274 274 274 274 273 273 273 272 272 273 273 272 272 272 272 272 272 272 272 271 271 270 270 269 268 268 267 267 267 266 266 265 265 265 264 264 264 265 265 265 265 265 265 265 265 265 266 266 266
285 285 284 284 283 283 282 282 281 281 280 280 279 278 278 277 277 277 276 275 275 275 275 274 274 275 275 275 274 274 274 273 273 273 273 273 274 274 274 274 274 274 274 274 273 273 273 273 272 272 272 272 272 272 272 271 271 270 269 268 268 268 267 267 266 266 265 265 265 265 264 264 264 264 264 265 265 265 265 265 265 265 265 265 266
283 283 282 282 282 281 281 280 280 279 279 278 278 277 276 275 275 275 275 274 274 273 274 274 274 274 274 275 275 274 274 273 273 273 273 274 274 274 275 275 275 275 275 275 275 275 274 273 272 272 272 272 272 272 271 271 270 269 268 268 268 268 267 266 266 265 265 265 264 264 264 264 264 264 264 264 264 265 265 265 265 265 265 265 265
282 282 281 281 280 280 279 279 278 278 277 277 276 275 275 274 273 273 273 273 273 273 273 274 274 274 274 274 274 275 275 274 274 274 274 274 274 275 275 275 275 276 276 276 276 275 275 274 273 272 272 272 272 271 271 271 270 269 268 268 268 267 267 266 265 265 265 265 264 264 264 264 264 264 264 264 264 264 264 264 264 264 264 264 265
281 281 280 280 279 278 277 277 276 276 275 275 274 274 273 273 272 272 271 271 271 271 271 272 273 273 273 273 273 274 274 274 274 274 275 275 275 275 275 275 275 275 276 276 275 275 274 273 273 272 272 272 271 271 271 270 270 268 268 267 267 267 266 265 265 265 265 265 264 264 264 264 263 263 263 263 263 264 264 264 264 264 264 264 265
280 279 279 278 277 276 275 275 275 274 274 273 273 272 272 271 271 270 270 270 269 269 269 270 270 271 272 272 272 272 272 272 273 273 273 273 274 274 275 275 275 274 274 274 274 274 273 273 272 272 272 271 271 271 270 270 269 268 267 267 267 266 266 265 265 265 265 265 265 264 264 263 263 263 262 262 263 263 263 263 264 264 264 264 265
277 277 276 275 274 274 273 273 272 272 272 271 271 271 270 270 269 269 269 268 268 268 268 268 268 269 270 270 270 270 270 270 270 270 271 271 272 273 273 273 273 273 273 272 272 272 272 272 272 271 271 271 271 271 270 269 268 267 267 266 266 265 265 265 265 264 264 265 265 264 263 263 263 262 262 262 262 262 263 263 263 263 263 264 265
275 274 274 273 272 272 272 271 271 271 270 270 270 269 269 269 268 268 268 268 267 267 267 267 267 267 267 268 268 268 268 268 268 268 268 269 269 270 271 271 271 271 271 271 271 271 271 271 271 271 270 270 270 270 269 268 268 267 266 266 265 265 265 264 264 264 264 264 264 264 263 263 263 262 261 261 261 262 262 262 263 263 263 264 265
273 272 272 271 271 270 270 270 270 270 269 269 269 268 268 268 267 267 267 266 266 266 266 265 265 265 265 265 265 265 265 265 265 265 265 265 266 266 267 267 268 268 269 269 269 269 270 270 270 270 270 269 269 269 268 268 267 266 266 265 264 264 264 264 264 264 264 264 264 264 263 263 262 262 261 261 261 261 261 262 262 263 263 264 264
270 270 270 270 270 269 269 269 269 268 268 268 268 267 267 267 266 266 265 265 265 264 264 264 263 263 263 263 263 264 264 264 264 264 264 264 264 264 264 265 265 265 266 266 267 267 268 268 268 269 268 268 268 267 267 267 266 265 265 264 264 264 264 264 264 264 264 264 264 263 263 262 262 261 261 261 261 261 261 261 262 262 262 263 263
269 269 269 268 268 268 268 268 268 268 267 267 266 266 266 265 265 264 264 263 263 263 262 262 262 262 262 262 263 264 264 264 264 263 263 263 263 263 263 263 263 263 264 264 265 265 266 266 267 267 267 267 266 266 266 265 265 264 264 264 263 263 264 264 263 263 263 263 263 263 262 262 261 261 261 260 260 260 260 260 260 261 261 262 262
268 268 268 268 268 268 267 267 267 266 266 266 265 265 264 264 263 263 263 262 262 262 262 262 262 261 261 261 262 262 262 262 262 261 261 261 261 261 262 262 262 262 263 263 263 264 264 265 265 265 265 265 265 265 265 264 264 264 264 263 263 263 263 263 263 263 263 263 263 262 262 261 261 260 260 260 260 260 259 259 259 260 260 261 262
267 267 267 267 266 266 266 266 265 265 264 264 263 263 263 262 262 262 262 262 261 261 261 261 261 261 261 261 260 260 261 260 260 260 260 260 260 260 260 260 261 261 262 262 263 263 263 264 264 264 264 264 264 264 264 263 263 263 263 263 263 262 262 263 263 263 262 262 262 262 261 261 260 260 260 260 259 259 259 259 259 259 260 261 262
266 266 266 265 265 264 264 264 263 263 263 263 262 262 262 262 261 261 261 261 261 260 260 260 260 260 260 261 260 260 260 260 260 260 260 259 259 259 259 259 259 260 260 261 261 262 262 263 263 263 263 263 263 263 263 263 263 262 262 262 262 262 262 262 262 262 262 261 261 261 261 260 260 260 260 260 259 259 258 258 258 259 260 261 262
265 265 264 264 264 263 263 263 262 262 262 262 262 261 261 261 261 261 260 260 260 260 260 260 260 260 261 261 261 260 260 260 260 260 260 259 259 259 259 259 259 259 259 260 260 260 261 261 262 262 262 262 262 262 262 262 262 262 262 262 262 262 262 262 262 261 261 261 261 261 260 260 260 259 259 259 259 258 258 258 258 258 259 260 261
264 264 264 263 263 263 262 262 262 262 262 261 261 261 261 261 261 260 260 260 260 261 261 261 260 260 260 260 260 260 260 260 260 260 260 260 260 259 259 259 259 259 259 259 259 259 260 260 260 261 261 261 261 261 261 262 262 262 262 261 261 262 262 261 261 261 261 261 261 260 260 259 259 259 259 258 258 258 258 258 257 258 259 260 261
263 263 263 263 263 262 262 262 261 261 261 261 261 261 261 261 261 261 261 261 261 261 261 260 260 260 260 260 260 260 260 260 260 260 260 260 260 259 259 259 259 259 259 259 259 259 259 260 260 260 260 260 260 261 261 261 261 261 261 261 261 261 261 261 261 261 261 261 260 260 259 259 258 258 258 258 258 258 258 257 257 258 259 260 261
263 263 262 262 262 262 261 261 261 261 261 261 261 261 261 261 261 261 261 261 261 260 260 260 260 260 259 259 259 259 259 259 259 260 259 260 260 260 259 259 259 259 259 260 260 260 260 260 260 260 260 260 260 260 261 261 261 261 261 261 261 261 261 261 261 261 261 260 260 259 259 259 258 258 258 258 258 258 258 257 257 258 259 260 261
262 262 262 262 261 261 261 261 261 261 261 261 261 261 261 261 261 261 260 260 260 260 260 260 259 259 259 259 259 259 259 259 259 260 259 259 260 259 259 259 259 259 260 260 260 260 260 260 260 260 260 260 260 260 261 261 261 261 261 261 261 261 261 261 261 260 260 260 260 259 259 258 258 258 258 258 258 258 257 257 258 259 259 260 261
262 262 261 261 261 261 261 261 261 261 261 261 261 261 261 260 260 260 260 260 260 260 259 259 259 259 259 259 259 259 259 259 259 260 259 259 259 259 259 259 259 259 260 260 260 260 260 260 260 260 260 260 260 260 261 261 261 261 261 261 261 260 260 260 260 260 260 260 259 259 258 258 258 258 258 258 258 258 258 258 259 259 260 260 261
261 261 261 261 261 261 261 261 261 261 261 261 261 260 260 260 260 260 260 260 259 259 259 259 259 259 259 259 259 258 258 259 259 259 259 259 259 259 259 259 259 259 259 259 260 260 260 260 260 260 260 260 260 260 260 260 260 260 260 260 260 260 260 260 260 260 260 259 259 259 258 258 258 258 258 258 258 258 258 259 259 259 260 260 261
Wind_Speed
35 36 36 36 36 36 36 36 35 34 33 32 31 31 31 30 29 28 27 26 25 24 23 22 21 20 18 17 16 16 15 14 13 12 12 11 10 9 8 7 6 5 4 4 5 5 6 7 7 8 8 9 9 9 9 9 8 7 5 6 7 6 9 11 12 20 31 32 28 28 30 31 31 32 32 32 35 37 37 36 35 35 36 36 36
35 36 36 36 36 36 37 36 35 34 33 32 31 31 31 30 29 28 27 26 25 24 24 22 21 19 18 17 17 16 14 14 13 12 11 9 9 8 6 6 5 4 4 4 5 6 7 7 7 8 8 9 10 9 10 9 9 8 7 7 10 10 9 12 14 17 26 35 34 30 30 31 30 31 32 33 35 37 36 36 36 34 33 33 33
36 36 36 36 36 36 36 36 35 34 34 33 32 32 31 30 29 28 27 27 26 25 23 22 20 19 18 18 17 16 14 13 12 11 9 8 7 6 5 4 4 4 4 5 6 7 8 8 8 9 9 10 9 9 9 9 9 9 9 10 11 13 11 11 15 17 22 32 36 31 29 32 32 29 31 33 34 33 34 36 36 35 33 31 31
36 36 36 35 35 35 36 35 35 35 34 34 33 32 32 31 30 28 28 27 27 25 23 21 20 19 19 19 17 16 14 13 12 10 9 7 5 4 3 2 2 3 5 6 7 8 8 9 9 9 10 10 10 10 9 10 10 10 11 12 13 15 15 14 14 17 20 28 35 33 28 31 34 31 30 32 32 32 34 35 35 35 34 32 31
36 36 36 35 35 35 35 36 36 36 35 34 33 33 32 31 30 29 29 28 27 26 23 22 21 20 20 18 17 16 14 13 12 10 8 6 5 3 2 1 1 3 4 6 7 8 9 10 10 10 11 11 11 11 10 10 11 11 12 14 15 16 18 18 17 18 20 24 32 35 31 29 33 31 25 27 33 35 35 35 34 34 35 34 33
36 36 36 36 36 35 36 37 37 36 35 34 34 33 33 32 31 30 30 29 27 26 24 23 22 21 20 18 16 15 14 13 11 9 7 6 4 3 2 1 2 3 4 6 7 8 9 10 11 11 11 12 12 12 12 11 12 13 14 15 17 19 19 20 19 19 21 23 27 33 32 28 29 30 25 24 30 33 33 35 36 34 34 35 36
36 36 36 36 37 37 37 38 38 37 36 35 34 34 33 32 32 31 30 29 27 26 25 24 22 21 20 18 17 16 14 13 11 9 7 6 5 4 4 3 3 4 5 7 8 9 10 11 11 12 12 12 13 12 12 12 12 14 15 16 18 19 20 20 20 19 21 23 23 26 28 26 26 29 29 26 27 27 27 30 36 37 36 36 38
37 37 37 37 38 38 38 38 38 37 36 35 34 34 33 33 32 32 31 29 28 26 25 25 24 22 21 19 18 16 15 13 11 9 8 7 6 6 5 5 5 5 6 8 9 10 11 11 11 12 12 12 12 12 11 12 13 14 15 17 18 19 20 20 19 19 19 20 19 18 22 25 25 27 28 25 24 26 26 27 31 37 38 38 39
37 37 38 38 39 39 38 38 37 37 35 34 34 34 34 34 33 32 31 30 28 27 26 26 25 24 23 21 19 17 16 14 11 10 9 8 8 7 7 7 7 7 8 9 10 11 11 12 12 12 12 12 11 11 11 11 13 14 15 16 17 18 19 19 19 19 19 19 18 17 19 22 22 24 25 22 21 27 30 29 31 36 38 38 39
38 38 39 39 39 38 38 38 38 37 36 35 35 35 35 35 34 34 32 30 29 28 28 27 26 26 25 23 21 19 17 14 12 11 10 10 9 9 9 10 9 9 10 10 11 11 12 12 13 13 13 12 11 11 11 11 12 14 14 14 15 16 17 19 19 18 19 20 19 17 19 21 21 22 23 23 24 28 32 32 32 35 35 34 36
38 39 39 39 38 38 38 38 38 37 36 36 36 36 36 36 35 34 33 31 30 30 29 29 28 27 26 24 22 20 18 15 14 13 12 11 11 11 12 12 11 11 12 12 12 12 13 13 13 14 14 14 13 12 12 13 13 14 14 14 13 13 14 16 18 17 17 19 20 18 17 22 24 22 21 27 31 31 32 32 28 29 29 26 27
38 38 38 38 38 38 38 38 38 38 37 37 36 36 36 37 36 35 34 33 32 31 31 31 30 28 27 25 23 20 18 16 15 14 13 13 13 14 14 14 14 13 13 13 13 13 14 14 14 15 15 15 14 14 14 15 15 16 16 14 12 12 12 13 15 17 18 20 23 21 19 23 28 28 26 30 33 30 27 26 23 26 30 27 26
36 36 36 36 37 37 38 38 38 38 38 37 36 36 37 38 37 36 35 33 33 33 33 32 31 29 28 26 24 22 19 18 17 16 15 15 15 16 17 16 16 15 14 14 14 14 15 15 16 16 15 15 15 15 16 17 17 17 16 15 14 14 14 13 14 17 19 21 25 26 25 27 32 34 32 30 30 27 24 25 25 26 28 27 26
35 35 35 35 36 37 38 38 39 39 38 37 37 37 38 39 38 37 35 34 34 35 35 34 32 30 28 27 24 22 21 19 18 17 17 16 17 18 19 18 18 17 16 15 16 15 15 16 17 17 16 15 15 16 17 18 17 16 15 15 15 15 15 15 16 17 19 21 26 30 31 31 33 36 35 32 31 30 28 29 30 29 30 32 34
35 36 36 35 36 37 38 39 39 38 38 38 38 38 39 38 37 36 36 36 36 36 36 35 33 31 29 27 25 24 22 21 20 19 19 18 18 19 20 20 19 18 17 17 17 16 16 16 17 17 17 16 15 16 17 16 15 15 15 15 16 17 18 18 19 20 22 24 27 30 31 31 31 33 33 32 32 33 33 33 34 35 36 37 36
35 36 36 36 38 39 39 40 39 38 38 38 38 39 39 38 37 37 37 37 37 37 36 35 34 32 31 29 27 26 24 23 22 21 20 19 19 20 21 21 20 20 18 18 18 18 17 17 17 18 18 18 17 15 14 13 14 15 16 17 18 19 20 21 22 22 22 23 24 26 27 28 29 30 31 31 31 33 34 34 32 30 30 30 29
36 36 36 38 39 40 40 39 39 38 37 38 39 39 39 38 37 37 38 38 38 38 37 36 35 33 32 30 29 28 27 25 24 23 22 21 21 22 22 22 22 21 20 19 20 19 18 18 18 19 19 18 17 14 12 12 14 16 17 19 20 21 23 23 22 19 18 19 21 23 24 26 27 28 29 28 27 27 28 28 27 26 25 23 23
36 35 37 38 39 39 39 39 38 38 38 39 40 40 39 38 39 38 38 39 39 39 38 37 36 35 33 32 31 30 29 27 25 24 23 23 23 24 24 23 22 22 21 21 21 21 20 19 18 19 20 18 16 13 11 12 14 16 18 19 21 23 23 21 20 19 19 21 23 24 26 27 27 28 27 25 22 21 21 22 24 25 22 19 20
35 36 38 38 38 38 38 38 38 38 39 40 40 39 39 39 39 38 38 38 38 38 37 37 37 36 35 34 33 32 31 28 26 26 25 25 25 25 25 24 24 24 23 23 23 22 21 20 20 19 19 17 15 13 13 14 16 17 18 20 23 23 20 18 19 22 23 25 27 29 30 29 28 27 26 24 21 18 17 18 20 22 21 20 21
35 36 37 36 36 36 37 37 38 39 39 40 39 39 38 38 38 38 38 38 37 37 37 37 37 36 35 35 34 34 33 30 28 28 27 27 27 27 26 26 26 25 24 24 24 24 23 22 21 19 18 17 15 15 15 15 16 17 19 21 23 21 18 19 21 22 24 27 29 30 29 27 26 25 24 23 21 19 17 15 16 18 19 20 22
33 33 33 33 34 34 35 36 37 38 38 38 37 37 37 37 37 37 37 37 37 36 36 36 36 36 36 35 35 35 34 32 30 29 29 29 28 27 29 29 27 26 25 25 25 25 25 24 22 19 17 16 16 16 16 15 15 17 20 21 19 17 18 21 22 23 25 28 29 28 25 24 24 23 23 23 22 20 18 16 16 17 18 19 22
29 30 30 30 31 32 33 34 35 36 36 36 36 36 36 36 36 36 36 36 36 36 37 36 36 36 36 36 36 36 35 34 32 31 30 30 29 29 30 31 28 26 26 27 27 27 26 25 23 19 16 15 16 16 15 15 16 18 19 18 16 16 18 20 23 24 25 25 24 23 22 23 23 23 23 23 22 20 20 21 20 20 21 21 23
26 26 27 28 29 30 31 32 33 34 35 35 35 35 35 34 35 35 35 35 35 36 36 36 35 35 36 36 37 38 37 36 35 33 31 31 31 30 30 30 29 28 28 29 29 28 26 25 22 18 15 15 16 16 16 16 16 16 16 16 15 16 17 20 22 22 22 21 20 20 21 21 22 24 24 24 23 22 23 23 23 24 24 24 24
22 23 25 26 27 28 28 30 31 32 33 33 34 34 34 33 34 34 34 34 34 35 36 35 35 35 37 38 39 40 39 38 37 34 32 32 31 31 30 30 28 28 29 30 28 27 26 24 20 17 15 16 17 16 17 16 15 16 16 15 14 15 19 21 20 19 18 17 17 19 20 20 21 23 23 23 23 23 23 24 24 25 25 26 27
20 22 23 24 24 25 26 27 28 30 31 32 33 33 33 33 33 34 34 34 35 36 36 35 35 36 38 39 41 41 40 39 38 35 33 32 32 32 31 30 27 26 28 29 29 27 24 20 17 16 16 17 17 17 18 17 17 19 18 15 14 18 20 19 17 16 16 16 17 18 20 20 21 22 22 23 23 23 23 25 26 27 27 28 29
18 19 20 21 22 22 24 25 26 28 29 30 31 32 33 34 34 34 34 34 35 36 36 35 35 36 37 39 41 40 38 38 37 35 32 32 33 32 31 30 27 26 27 28 26 24 21 18 17 18 18 17 18 19 20 20 20 22 21 18 18 20 19 17 15 15 15 15 16 18 19 20 22 22 22 22 23 23 23 25 27 28 28 29 31
15 17 18 19 20 21 22 24 25 26 28 29 30 31 32 33 34 34 35 35 36 36 36 35 35 36 37 39 39 36 34 34 34 33 32 32 33 32 31 30 28 25 26 27 26 24 22 20 19 18 17 18 19 20 20 20 21 21 21 20 20 19 17 15 14 14 15 15 16 18 19 20 21 22 22 23 24 23 22 23 25 27 28 28 29
12 14 15 17 18 19 20 22 23 25 26 27 29 30 31 32 33 35 36 36 36 37 36 36 36 35 35 33 30 28 29 32 33 33 31 30 31 31 31 31 30 28 28 29 27 26 25 23 21 20 19 20 21 21 21 21 21 21 20 19 18 17 15 14 14 14 14 15 15 17 18 19 21 22 21 23 24 23 22 23 24 26 27 26 25
11 13 14 15 17 18 19 21 22 23 24 25 26 27 29 30 31 32 32 31 32 32 32 32 32 30 29 28 26 26 29 32 31 30 28 27 28 30 30 29 28 28 29 28 26 25 25 24 23 23 23 23 24 25 25 24 23 22 21 19 17 16 14 14 14 14 13 13 14 15 17 19 21 21 21 22 24 24 23 23 23 25 26 25 24
12 13 14 15 17 18 19 20 21 22 22 23 24 25 25 26 27 28 28 28 28 27 27 28 28 26 26 28 27 26 28 28 27 25 24 23 24 25 26 26 25 26 26 24 23 24 24 24 24 25 24 24 26 27 26 25 23 22 21 19 17 16 15 15 14 13 12 13 13 14 16 18 19 20 21 22 24 25 24 23 23 24 24 24 24
13 14 15 15 16 17 17 18 18 19 20 20 21 22 22 23 23 24 25 25 24 24 24 24 23 21 22 24 24 24 23 23 22 21 20 20 19 20 21 22 22 22 21 20 22 24 25 24 25 25 25 26 27 28 27 25 23 22 21 19 18 17 16 15 13 12 12 13 13 13 14 16 18 19 20 22 23 25 25 24 23 23 23 23 23
13 13 13 14 14 15 15 16 16 17 18 18 18 19 19 20 21 21 20 20 20 19 19 20 19 17 16 16 17 19 19 18 17 17 16 16 16 17 19 20 21 21 20 21 25 27 27 27 27 26 26 27 28 28 26 25 23 22 21 20 19 18 17 14 12 12 13 13 13 13 14 15 17 19 20 21 22 23 24 24 24 24 23 23 24
11 11 11 12 12 13 13 14 15 15 16 16 16 16 16 17 18 17 16 16 16 15 13 14 14 14 14 14 14 15 16 16 17 17 16 16 17 18 19 21 22 22 23 25 28 28 26 27 27 26 26 27 28 27 25 24 23 22 21 21 20 19 17 14 13 13 13 13 13 13 14 15 17 18 20 21 22 22 23 23 23 23 23 23 25
9 10 10 10 11 11 12 12 12 13 13 13 14 14 14 14 14 14 13 12 12 12 11 11 10 11 12 12 13 13 14 14 15 16 16 17 18 19 20 22 23 24 25 27 28 26 24 24 24 25 26 28 28 26 24 23 23 23 22 22 21 19 17 15 14 14 14 13 13 14 14 15 16 18 20 22 22 22 21 21 22 22 23 23 25
8 9 9 10 10 10 10 10 10 10 11 11 11 11 11 11 11 11 11 11 10 9 9 9 10 10 10 10 11 12 13 13 14 15 16 17 17 18 20 22 24 24 25 27 27 26 24 24 25 27 29 30 28 26 24 23 23 23 22 22 20 19 17 16 15 15 14 14 14 14 14 15 17 18 19 21 22 21 21 21 21 22 23 24 24
7 8 8 8 8 8 8 8 8 8 9 9 8 8 9 9 9 9 9 9 9 9 8 9 10 11 12 12 13 15 15 15 16 16 16 17 17 17 20 23 23 22 23 25 26 27 27 28 28 28 30 30 27 24 23 23 23 23 22 21 20 19 18 17 16 15 14 14 15 15 16 17 18 19 19 20 21 21 20 20 21 22 23 23 22
6 6 6 6 6 6 6 6 5 5 6 5 6 6 6 6 6 7 7 7 8 8 9 9 10 11 12 13 14 15 16 17 18 18 17 18 18 19 21 23 22 22 23 24 25 27 29 30 30 30 29 28 25 24 24 24 23 23 22 21 20 19 18 17 16 15 15 15 15 16 17 18 19 19 19 20 22 21 20 19 20 22 22 21 21
4 4 4 4 4 4 4 4 4 3 3 3 3 4 4 4 4 5 5 6 6 7 8 9 9 10 11 12 12 13 15 16 17 18 18 18 18 20 22 22 22 22 23 24 25 26 29 31 31 31 29 28 26 25 24 23 23 22 22 21 20 19 18 17 17 16 16 16 16 17 18 19 19 19 19 20 21 21 21 20 21 21 21 21 21
4 4 4 4 4 4 4 3 3 3 2 2 2 2 2 3 3 3 4 4 5 5 6 8 8 9 10 12 12 12 14 15 15 16 17 17 18 19 21 22 23 23 23 23 23 23 25 27 29 30 30 29 27 25 24 23 23 23 22 21 20 19 18 18 17 16 16 16 16 17 19 20 20 20 20 20 21 22 21 21 20 20 20 22 24
5 5 5 5 5 4 4 3 3 2 2 2 1 2 2 2 2 2 3 3 4 5 5 7 8 8 10 11 11 12 14 16 16 17 18 19 19 19 20 21 23 24 25 25 25 24 25 26 26 27 27 27 25 24 24 24 24 23 21 21 20 19 18 18 17 17 16 16 17 18 19 20 21 21 21 21 21 20 20 20 20 20 21 22 24
6 6 6 5 5 4 4 4 3 2 2 2 2 1 1 1 1 2 2 3 3 4 5 6 8 9 10 10 11 12 13 15 15 15 16 17 18 19 20 21 22 23 25 26 26 26 26 27 26 25 24 24 23 24 24 25 24 23 22 21 20 19 19 18 18 17 16 16 17 19 20 21 21 21 21 21 21 21 21 21 21 21 22 22 23
5 5 5 5 4 4 4 4 4 3 3 2 1 1 1 0 1 1 2 3 4 5 6 7 8 8 9 9 10 11 12 13 14 16 17 17 17 17 18 19 21 22 24 25 26 26 27 26 26 25 24 23 23 24 24 24 24 22 21 21 20 20 19 19 18 18 17 17 18 19 20 21 20 20 21 21 22 22 21 20 20 22 23 23 23
5 5 5 4 4 4 4 4 3 3 3 2 2 1 1 1 1 2 3 4 5 6 7 7 8 8 9 9 10 11 12 13 15 16 17 18 18 19 19 19 20 21 22 23 24 25 25 26 25 24 24 23 22 22 22 22 21 20 20 20 20 20 20 19 19 18 17 17 18 19 20 20 21 21 21 22 22 22 21 21 21 22 21 21 22
5 5 4 4 4 4 4 3 3 2 2 1 1 0 1 2 2 2 3 3 4 5 6 7 9 10 11 11 12 12 13 14 15 16 18 18 19 20 20 20 20 20 20 21 21 21 21 22 22 22 23 22 21 21 21 20 19 19 19 19 19 20 20 20 19 18 17 18 18 19 20 21 21 21 22 22 21 21 21 21 20 19 18 19 21
4 4 4 4 4 4 4 3 3 2 2 1 1 1 2 2 2 2 3 4 5 6 7 8 10 11 12 12 13 13 14 15 15 16 17 18 19 19 20 20 20 20 20 20 20 19 20 21 22 23 24 24 22 20 19 19 18 18 18 19 20 20 20 20 19 18 18 18 19 19 20 20 21 21 21 21 20 20 21 21 19 18 18 19 20
3 4 4 4 4 4 4 3 3 3 2 2 2 1 1 1 2 3 4 5 6 7 8 9 10 11 12 12 13 13 14 14 15 15 16 17 17 18 19 19 19 19 19 19 19 18 19 20 21 22 23 23 21 19 18 18 17 18 18 18 19 20 20 19 19 19 18 18 19 19 20 21 21 21 20 20 20 20 21 21 20 19 18 19 21
3 3 3 3 3 3 3 3 3 2 2 1 1 0 1 2 3 4 5 6 7 8 9 9 10 11 12 13 13 13 14 14 15 15 16 17 17 18 18 18 18 18 18 18 17 16 17 17 18 19 19 20 19 18 18 17 17 17 18 19 19 20 20 19 19 19 18 18 18 19 20 20 21 21 20 21 21 21 22 21 20 19 18 19 22
3 3 3 3 3 3 3 2 2 1 0 0 1 2 3 3 4 5 5 6 7 8 9 10 11 12 12 13 14 14 14 15 16 16 16 16 16 17 17 17 17 17 17 17 16 15 15 15 16 16 17 17 17 17 17 17 17 18 18 19 19 19 19 19 18 19 18 18 19 19 19 20 20 20 20 21 20 20 20 20 19 18 19 20 22
3 3 3 3 2 2 1 1 1 1 2 2 3 4 4 5 6 6 7 8 9 10 11 12 12 13 14 14 15 15 15 16 16 17 16 16 16 15 16 16 16 16 17 17 16 15 14 14 14 15 16 16 17 17 17 18 18 19 19 19 19 18 18 18 18 18 19 19 18 18 18 19 19 19 19 19 18 18 18 19 19 19 21 21 22
3 2 2 1 1 1 2 2 3 3 4 4 5 5 6 7 7 8 9 10 11 11 12 13 13 14 15 15 16 16 16 16 17 17 17 16 16 15 16 16 16 16 16 16 16 15 15 14 14 15 15 16 17 17 18 18 19 19 18 18 18 18 18 18 18 18 18 18 18 17 17 17 17 16 17 17 18 18 18 18 19 21 22 21 21
1 1 1 2 2 3 3 4 4 5 5 6 6 7 8 9 9 10 10 11 12 13 13 14 14 15 16 16 16 17 17 17 17 17 17 16 16 16 16 16 16 16 15 15 15 15 14 14 14 15 15 16 16 17 17 18 18 17 17 17 17 17 17 17 16 16 16 16 16 16 15 15 16 17 18 19 19 18 18 19 20 21 21 21 22
Wind_Direction
181 181 182 182 183 183 183 182 182 182 182 181 179 177 175 173 171 170 168 166 166 164 162 159 155 152 149 143 138 134 131 128 125 122 118 113 106 98 91 84 73 63 45 10 348 338 330 324 320 314 310 311 313 315 317 319 318 311 306 300 296 288 290 295 285 287 301 308 307 310 316 318 319 322 322 321 320 321 323 323 324 325 325 326 327
184 184 184 185 185 185 185 185 185 185 184 183 182 179 177 176 174 172 171 170 169 168 165 162 159 156 151 147 144 143 141 138 136 132 126 120 114 107 99 92 78 60 42 14 353 342 330 323 320 313 309 310 311 312 312 313 313 310 309 303 300 301 297 298 297 290 297 306 308 310 315 317 318 319 320 319 319 321 322 323 324 325 325 326 327
187 187 187 187 188 187 187 187 187 186 185 184 183 181 179 178 177 176 175 173 173 172 169 166 162 159 155 153 153 153 152 149 144 140 137 132 126 121 112 99 79 53 32 10 354 342 330 323 319 313 311 312 311 310 308 309 309 307 307 305 304 308 309 303 301 295 294 300 305 310 314 316 316 317 318 318 320 322 322 323 325 325 325 326 324
188 189 189 189 189 189 189 188 187 187 186 186 184 182 181 180 180 180 179 177 176 175 173 170 166 163 161 161 162 162 161 158 153 151 150 147 141 135 126 105 68 36 19 3 348 336 327 322 319 315 314 312 310 309 306 305 308 307 307 309 310 312 313 309 301 296 296 298 301 305 311 312 312 315 320 320 321 323 322 323 325 325 324 324 322
189 190 190 189 189 190 190 188 188 188 188 187 186 184 184 183 183 184 184 181 179 177 175 172 170 169 169 170 171 171 170 166 163 162 162 161 162 162 163 138 29 14 360 346 335 329 324 321 319 316 313 310 307 306 306 307 308 309 310 312 313 312 312 310 303 298 296 295 298 303 308 311 312 316 323 325 323 324 324 325 325 324 323 323 322
190 191 191 190 190 191 190 189 189 189 190 189 188 187 187 187 186 188 188 185 183 181 178 176 175 175 176 177 179 180 178 176 173 174 177 180 188 201 217 258 323 339 334 328 324 323 321 319 317 316 311 307 305 304 306 308 309 310 310 310 311 311 311 311 310 305 300 297 298 303 308 313 316 317 322 327 324 323 324 325 324 323 322 323 323
191 192 193 192 192 192 191 191 191 192 192 191 190 190 190 191 191 191 191 190 187 184 181 181 180 181 183 184 187 189 187 185 185 187 194 202 212 226 244 268 293 306 310 314 317 318 318 316 314 311 306 301 299 299 301 304 305 307 308 309 309 310 311 313 313 309 304 302 302 304 307 312 315 314 318 324 323 320 321 322 320 321 323 322 320
192 193 194 194 195 194 194 194 194 195 195 193 193 194 194 194 195 195 195 194 192 189 187 185 185 186 189 192 194 195 195 195 197 202 210 219 226 238 255 267 278 289 297 305 310 311 312 311 309 304 300 294 290 291 295 300 302 303 303 305 306 307 308 310 310 306 303 302 302 305 308 310 314 315 318 325 325 321 322 320 314 315 318 317 315
193 194 195 196 197 197 195 196 196 196 196 196 196 197 197 197 198 198 198 197 195 193 191 191 190 191 194 198 199 200 201 205 209 216 223 230 237 247 258 265 274 282 289 296 301 303 306 306 303 299 293 288 285 285 288 290 292 294 296 299 302 303 305 306 305 304 301 299 300 303 306 307 312 317 317 321 321 316 317 315 308 308 311 310 309
194 195 197 198 199 198 197 197 198 198 198 199 199 199 199 200 200 201 201 199 197 196 195 195 196 198 200 201 203 205 207 212 217 224 231 238 244 252 259 265 269 276 283 288 291 297 302 301 300 297 291 287 284 281 280 277 277 281 285 290 294 297 300 301 301 300 298 297 297 300 303 304 309 313 310 309 311 310 309 308 303 304 307 305 305
196 197 199 199 200 199 198 199 199 200 201 202 202 202 201 202 204 204 204 202 200 199 199 200 201 204 206 207 208 209 212 217 222 228 234 241 248 255 259 263 267 271 278 283 287 293 297 297 297 295 292 290 288 285 283 279 277 278 279 282 286 288 292 295 297 298 297 297 296 298 300 300 302 304 300 299 303 303 301 299 295 296 299 299 301
197 199 200 200 200 200 199 200 201 202 203 204 204 204 204 205 206 207 206 204 202 202 203 205 206 208 209 211 212 213 216 221 226 230 236 243 250 256 258 261 266 270 273 279 284 289 293 296 296 294 293 291 288 286 285 283 282 281 281 281 278 275 279 285 292 296 296 295 294 292 291 291 293 296 295 294 297 297 295 292 289 290 293 291 292
199 200 200 200 201 201 201 202 203 204 205 206 206 206 206 207 208 209 209 207 206 206 207 209 211 211 212 214 215 217 220 225 229 232 237 243 249 256 260 262 265 268 272 277 281 285 289 293 293 291 290 287 285 284 283 283 283 281 279 278 275 276 279 279 282 284 285 286 286 286 288 289 289 292 296 294 293 293 291 290 290 289 288 288 292
200 201 202 202 203 203 204 205 206 207 207 207 207 208 209 209 210 211 211 209 209 210 211 213 214 215 217 219 219 221 224 227 232 235 238 242 248 255 261 264 266 269 273 276 279 281 285 289 290 289 286 283 281 281 281 281 281 281 282 282 283 289 291 288 285 282 280 280 279 282 288 290 288 292 298 299 295 295 296 298 300 299 296 297 301
201 203 203 204 205 206 207 208 209 209 209 208 208 209 210 211 211 212 213 213 213 215 215 216 217 219 222 223 223 227 229 231 235 238 240 243 247 251 258 262 265 269 274 277 278 280 283 285 286 286 284 281 279 277 277 279 281 283 286 286 290 296 295 294 297 294 289 286 283 285 292 296 296 299 305 307 305 305 305 305 306 306 304 304 305
203 204 204 205 207 209 209 210 210 210 209 208 209 210 211 212 213 215 216 216 217 218 218 220 222 224 226 227 228 232 234 234 236 239 242 244 246 250 255 260 264 269 274 276 277 278 281 283 283 283 282 279 276 272 270 273 277 279 282 288 293 294 293 297 301 295 289 289 290 294 299 302 304 304 307 310 310 310 310 309 309 311 310 309 307
205 205 206 208 210 211 211 211 211 211 210 209 210 212 212 214 216 218 218 217 218 220 221 223 226 228 230 231 233 236 238 237 238 240 242 244 246 249 253 258 262 268 272 274 274 275 278 280 280 279 278 275 272 268 262 263 267 274 282 289 292 292 294 299 300 292 288 291 294 296 300 302 304 304 306 309 311 314 315 313 315 317 315 311 308
206 206 209 212 213 213 213 213 213 212 212 213 214 214 215 217 220 221 221 221 222 224 225 227 229 231 233 235 238 241 242 240 239 241 243 243 245 248 253 257 261 265 270 270 271 272 275 276 276 275 275 273 270 265 258 257 264 273 281 286 287 288 292 297 299 297 298 298 296 297 300 303 305 306 309 312 317 321 320 316 316 317 312 308 309
209 211 215 216 216 216 215 215 215 215 216 217 218 218 220 221 223 224 225 226 227 228 228 230 232 234 236 238 241 243 244 242 240 242 244 243 245 248 252 255 258 263 267 268 269 271 272 272 271 271 271 270 267 260 253 254 262 269 274 279 281 283 288 297 303 304 302 300 299 301 304 306 309 311 314 319 325 329 325 318 318 317 312 311 313
215 218 220 219 218 218 218 218 218 219 220 222 222 222 224 225 226 226 227 228 229 230 231 233 235 237 239 240 242 243 245 245 242 242 243 242 243 248 251 252 256 261 264 265 267 269 270 270 269 267 265 261 255 253 250 250 256 262 267 271 273 278 291 303 303 299 297 298 300 303 306 309 313 316 321 326 331 334 330 322 319 318 316 315 314
221 222 222 221 221 221 221 221 223 224 225 225 225 226 227 228 229 230 230 229 229 230 233 235 237 240 241 242 244 245 247 247 244 242 242 241 241 245 250 253 256 260 263 263 264 266 268 268 267 265 263 255 248 248 249 249 253 259 263 265 270 284 300 300 294 291 292 296 299 302 306 311 316 322 328 331 333 335 331 324 319 317 314 311 308
223 222 223 223 224 224 224 225 226 227 227 227 226 228 229 230 231 232 231 230 230 232 235 236 238 241 242 243 245 246 247 248 246 242 240 240 240 241 248 255 257 258 259 259 260 263 266 266 266 266 263 251 244 245 247 250 254 258 261 265 278 294 294 286 284 288 292 295 298 302 308 314 321 327 331 332 333 334 330 324 321 317 313 308 302
223 223 224 225 226 227 227 228 228 228 228 228 228 230 231 230 231 231 231 231 231 233 235 236 237 240 242 244 246 247 247 247 246 242 239 239 239 241 246 252 254 254 255 257 259 262 264 263 264 264 254 242 242 245 248 252 256 256 261 274 287 288 279 275 281 287 291 295 299 303 309 318 324 327 329 330 331 331 328 325 323 320 316 312 307
223 224 225 227 228 229 229 229 230 230 230 230 230 230 231 231 230 231 231 231 231 233 234 235 235 238 241 244 246 247 247 246 245 242 239 238 239 241 243 245 247 251 255 258 259 260 261 262 260 252 241 239 244 247 249 250 249 252 267 283 286 276 271 275 282 287 292 296 300 305 312 320 323 323 325 326 326 328 328 327 326 325 321 318 315
221 223 225 226 228 229 230 230 231 231 231 231 230 230 229 229 229 229 230 229 230 232 233 234 234 236 239 243 246 247 247 246 244 242 240 239 239 240 241 240 240 242 248 255 258 259 259 257 249 240 238 242 245 246 247 245 245 255 271 281 275 269 273 277 280 285 291 295 300 306 312 318 320 320 321 323 323 326 330 330 329 328 325 322 319
220 221 223 225 227 227 228 228 229 230 230 231 231 232 231 230 230 229 228 228 229 231 233 234 235 236 239 243 246 248 247 247 246 244 241 239 239 238 238 239 238 237 241 249 253 254 252 248 243 242 243 244 245 246 247 248 252 263 275 279 274 272 274 274 277 283 289 294 300 305 310 314 317 318 320 321 322 326 330 330 327 325 325 324 320
221 221 223 226 226 226 227 227 227 227 228 229 230 231 232 232 231 229 229 228 229 231 232 233 234 236 239 242 246 248 249 249 250 247 242 238 238 239 238 239 238 235 237 242 244 245 244 243 243 246 246 246 245 243 245 251 259 268 277 277 273 271 269 269 274 281 285 291 296 300 304 309 312 315 319 320 321 326 331 328 322 320 322 322 319
227 229 230 231 231 231 230 230 230 229 228 227 227 228 229 230 230 231 232 231 231 231 232 233 234 236 240 244 249 252 253 253 253 253 249 243 241 242 241 240 238 236 237 240 242 244 245 243 243 245 246 247 245 243 246 254 263 271 276 273 268 266 266 267 272 277 280 285 289 293 301 308 310 313 317 319 320 325 330 327 322 319 321 321 315
234 238 240 240 242 242 239 238 237 235 234 232 230 231 232 233 234 235 236 237 237 238 239 241 243 244 246 251 255 256 258 261 263 265 263 257 250 247 247 247 247 246 246 245 244 246 246 244 243 245 245 245 244 245 250 255 261 270 276 272 266 266 264 264 271 277 280 284 287 294 303 308 308 311 316 317 319 322 325 324 322 320 320 318 312
238 241 242 244 245 245 244 243 243 242 243 242 241 241 241 242 243 245 245 246 247 248 250 253 256 257 258 260 261 262 267 272 275 274 271 265 258 254 254 256 257 257 255 250 245 243 243 241 240 240 241 242 243 244 247 252 259 269 275 270 265 264 262 263 272 280 282 285 290 298 303 305 306 311 315 314 315 319 321 322 321 320 319 316 310
237 238 240 242 243 244 245 246 246 247 249 248 248 248 247 247 248 249 251 253 253 253 254 258 261 263 264 267 269 270 271 272 272 270 270 268 261 255 253 254 254 253 252 244 238 237 238 236 236 237 237 239 241 243 246 252 260 269 273 269 264 263 263 265 271 277 279 284 292 299 303 304 306 309 310 310 311 315 318 320 320 319 317 314 310
234 236 237 239 242 244 247 248 249 250 251 251 252 253 253 253 252 251 253 257 258 258 258 258 257 255 257 266 272 274 271 266 261 261 262 259 252 245 244 246 245 243 239 234 232 234 234 234 234 234 234 236 239 241 245 252 261 269 271 265 261 261 263 266 270 273 277 285 295 300 304 305 306 306 307 308 308 311 313 315 317 317 316 314 311
233 236 237 239 242 245 248 250 251 252 253 254 255 256 256 258 260 261 260 260 260 261 258 257 258 258 258 261 265 269 271 267 262 261 259 252 247 246 245 245 243 240 236 235 236 237 236 234 234 233 234 238 241 242 246 254 264 269 268 264 261 261 263 268 271 272 276 285 294 299 302 304 305 307 308 308 308 308 309 311 313 315 315 313 311
238 241 242 244 246 248 250 252 253 253 254 254 255 256 257 260 265 271 274 272 269 266 259 253 255 260 264 265 265 266 268 266 264 264 263 256 251 249 249 248 248 245 241 239 241 243 243 242 241 241 243 244 242 242 248 258 266 269 266 262 261 261 262 267 269 271 277 285 292 296 300 303 306 308 307 308 309 307 307 309 312 313 313 312 309
246 246 246 247 248 249 250 250 249 251 250 250 252 255 259 262 265 270 276 279 280 278 271 259 249 247 251 256 257 258 261 262 262 263 265 264 261 259 256 254 251 248 245 244 246 249 251 250 249 249 248 246 243 244 252 261 267 267 264 261 260 260 261 264 267 270 278 286 290 296 302 304 305 306 305 306 307 306 306 308 310 310 311 310 306
243 243 244 244 243 243 244 243 242 244 246 248 253 255 257 261 264 266 271 276 277 278 275 268 258 250 248 250 253 256 259 262 265 270 274 276 274 270 265 260 254 248 246 245 246 250 253 254 255 253 249 245 244 248 258 265 268 266 262 260 259 259 259 262 267 272 278 284 290 298 302 302 303 306 307 306 304 302 303 305 307 308 309 308 305
233 232 230 231 231 228 226 226 228 233 238 243 248 250 253 256 261 264 268 270 272 274 275 276 276 271 266 265 267 268 267 266 267 270 274 275 274 271 268 266 262 257 253 252 252 253 254 255 256 254 249 246 248 254 262 267 268 265 261 258 258 257 258 262 267 272 277 284 291 297 300 300 303 306 307 305 303 302 302 303 305 306 306 305 306
208 207 204 205 206 205 204 204 206 211 221 228 236 242 248 251 256 263 268 268 272 279 283 288 293 294 292 289 288 286 284 281 279 278 277 275 272 269 269 271 270 266 263 261 260 257 255 254 254 253 250 250 254 258 262 267 267 263 258 256 256 256 257 260 265 270 277 284 291 296 298 300 304 306 307 304 302 301 301 302 304 304 304 305 306
166 164 165 169 171 173 177 180 182 185 194 207 219 229 241 247 256 264 269 274 279 286 294 299 304 307 307 309 311 312 309 306 303 301 298 295 290 283 279 278 279 277 276 274 271 267 262 257 255 255 255 255 256 259 262 266 266 261 256 255 254 254 256 259 263 270 277 283 290 296 299 301 304 306 305 303 302 302 303 304 304 301 300 302 305
143 140 139 139 140 144 147 148 152 158 162 176 200 216 226 241 257 267 277 287 294 299 304 306 306 309 312 315 321 323 317 312 310 309 306 303 302 299 294 289 287 286 284 283 281 279 275 269 265 261 258 256 257 262 267 270 267 260 256 255 254 254 258 262 266 272 279 286 293 298 300 302 304 304 303 302 303 304 304 302 300 298 297 299 302
131 131 130 128 130 134 136 138 144 149 153 169 187 201 215 240 268 285 295 303 304 306 307 306 309 314 316 315 318 318 311 306 306 308 306 304 303 300 297 294 293 291 289 286 284 283 280 276 271 265 261 260 264 269 272 270 265 260 257 257 256 257 260 265 269 275 282 289 294 298 300 301 302 301 300 300 301 301 302 301 299 297 297 299 301
130 132 130 130 134 137 137 138 140 140 140 145 143 134 123 22 354 328 319 318 316 313 313 315 317 320 320 318 318 315 306 300 298 300 302 303 302 300 297 294 291 291 290 288 287 285 282 278 274 271 271 272 274 274 271 266 262 259 258 258 258 261 264 268 273 278 284 291 296 298 299 299 299 297 297 298 298 300 302 301 298 297 298 300 302
138 140 138 139 140 137 134 131 129 125 123 118 108 102 93 5 342 319 312 316 314 311 313 318 322 325 328 329 326 320 314 310 308 307 306 306 304 302 300 297 293 291 290 290 290 287 283 279 276 275 277 277 276 273 269 266 263 260 258 259 262 265 268 271 276 282 289 294 297 296 295 295 295 295 296 297 298 299 301 300 299 299 298 299 302
137 140 144 144 140 138 139 139 137 132 132 127 124 168 277 297 301 294 298 306 311 313 319 324 327 329 333 335 332 326 322 320 318 315 312 311 309 306 305 304 302 297 292 290 291 289 283 279 277 277 279 280 278 271 265 263 261 259 259 261 265 267 270 276 282 289 294 295 294 293 293 293 294 293 294 296 298 299 300 302 300 298 296 299 302
129 134 139 140 140 145 151 154 157 162 166 177 203 222 244 265 277 290 305 317 324 326 328 330 330 329 329 330 329 327 325 323 321 318 316 314 312 311 311 311 310 307 301 295 291 287 283 280 279 280 281 282 279 271 263 261 262 261 262 265 268 270 276 282 287 291 293 292 291 292 292 291 290 290 291 294 297 298 299 300 296 292 292 297 301
129 131 133 135 136 137 139 140 142 150 159 169 178 188 221 274 309 322 325 326 328 328 327 327 326 323 322 323 324 324 325 323 320 319 319 317 316 316 317 316 314 313 310 305 299 292 285 280 279 280 280 280 277 273 267 264 265 266 266 269 272 275 281 286 288 290 290 290 290 290 288 286 287 288 289 292 293 294 295 296 294 291 293 296 300
126 124 125 125 120 119 125 127 125 130 140 144 152 320 324 319 319 322 322 320 320 320 318 318 318 317 317 319 320 322 324 324 321 320 320 319 319 319 319 318 317 315 314 311 307 300 292 285 281 280 279 277 276 274 271 269 269 270 271 273 276 279 283 285 286 287 287 286 285 285 283 282 284 285 287 289 290 292 294 295 293 291 292 294 298
115 114 117 117 113 116 126 126 123 134 168 306 308 308 311 310 308 310 312 311 311 311 311 312 314 315 315 316 318 319 321 322 321 321 321 321 321 321 319 317 316 316 314 313 311 306 301 294 288 284 282 280 279 277 275 274 274 274 275 276 278 280 282 283 282 282 282 281 281 280 279 280 282 285 287 289 290 291 294 293 290 289 291 293 296
118 119 119 120 122 131 159 185 234 262 277 285 287 289 295 297 299 304 307 306 306 308 309 310 312 314 315 315 317 318 319 320 321 321 321 321 323 324 322 319 317 314 312 310 309 307 303 298 292 287 285 283 282 281 279 279 278 277 278 279 279 279 279 279 278 279 279 278 278 278 278 279 283 285 286 288 290 291 291 288 286 287 290 291 294
130 130 133 154 187 233 248 255 264 269 271 275 281 286 290 293 297 303 306 305 305 308 310 310 311 312 313 314 315 315 316 318 319 320 320 321 323 324 323 321 319 317 313 310 308 306 303 298 294 290 286 284 283 282 281 281 281 281 281 281 280 279 278 277 277 278 277 277 277 277 277 279 284 285 287 290 292 290 286 281 282 286 288 288 289
192 217 236 243 248 255 257 260 265 269 271 276 282 287 290 294 299 302 303 303 305 307 309 310 310 310 311 313 313 313 314 316 317 316 317 319 321 321 320 319 317 315 313 310 308 306 303 300 296 293 290 287 286 285 284 283 284 283 282 281 279 278 278 277 277 276 274 272 272 274 275 279 284 286 288 290 290 284 279 277 280 283 284 283 286